Location: Haieshausen
(51.8387°N, 9.9720°E)
Time: 04:32:45
(UTC+00:00)

Lacrosse 5 - Pass Details

Date: 14 July 2020
Orbit: 717 x 720 km, 57.0° (Epoch: 09 August)

Event Time Altitude Azimuth Distance (km) Brightness Sun altitude
Exits shadow 00:10:41 21° 225° (SW) 1,594 3.2 -15.9°
Maximum altitude 00:14:05 71° 145° (SE) 760 1.8 -15.8°
Drops below altitude 10° 00:19:09 10° 62° (ENE) 2,207 4.9 -15.6°
Sets 00:21:32 0° 61° (ENE) 3,130 5.8 -15.5°
